This demonstration page uses our WeatherBlox Daily Observations layout. Learn more.

Left ArrowRight Arrow

Hourly Observations for March 27, 2017

Temp ( °F °C ) Dew Point ( °F °C ) Humidity (%) Winds ( mph kmh ) Pressure ( in mb ) Visibility ( mi km ) Precip ( " mm )
12:09 am 00:09 Cloudy with Thunderstorms 57 13.9 54 12.2 90 90 S 13 20 29.91 1013 5 8 0.08 2.03
12:30 am 00:30 Cloudy with Nearby Thunderstorms 57 14 54 12 88 88 SSE 15 24 29.91 1013 4 6 0.00 0.00
12:40 am 00:40 Cloudy with Heavy Rain 57 14 54 12 88 88 SE 13 20 29.88 1012 4 6 0.00 0.00
12:52 am 00:52 Cloudy with Light Rain 56 13.3 54 12.2 93 93 SE 23 37 29.84 1011 6 10 0.31 7.87
1:22 am 01:22 Cloudy with Nearby Thunderstorms 55 13 54 12 94 94 SE 13 20 29.85 1011 4 6 0.00 0.00
1:37 am 01:37 Cloudy with Rain 56 13.3 54 12.2 93 93 ESE 8 13 29.83 1010 5 8 0.27 6.86
1:52 am 01:52 Mostly Cloudy with Light Rain 56 13.3 54 12.2 93 93 ENE 14 22 29.76 1008 10 16 0.29 7.37
2:52 am 02:52 Clear 56 13.3 53 11.7 90 90 E 12 19 29.75 1007 10 16 0.00 0.03
3:52 am 03:52 Cloudy with Light Rain 56 13.3 53 11.7 90 90 W 9 15 29.80 1009 10 16 0.00 0.03
4:47 am 04:47 Cloudy with Light Rain 55 13 54 12 94 94 ENE 8 13 29.77 1008 8 13 0.05 1.27
4:52 am 04:52 Cloudy with Light Rain 55 12.8 54 12.2 96 96 ENE 8 13 29.76 1008 7 11 0.05 1.27
5:52 am 05:52 Cloudy with Light Rain 55 12.8 54 12.2 96 96 SE 10 17 29.75 1008 10 16 0.04 1.02
6:52 am 06:52 Cloudy 56 13.3 54 12.2 93 93 S 12 19 29.75 1008 10 16 0.00 0.03
7:52 am 07:52 Cloudy with Light Rain 55 12.8 54 12.2 96 96 S 12 19 29.76 1008 10 16 0.00 0.03
8:52 am 08:52 Cloudy with Light Rain 56 13.3 54 12.2 93 93 S 13 20 29.77 1008 9 14 0.02 0.51
9:18 am 09:18 Mostly Cloudy 57 14 54 12 88 88 NW 9 15 29.80 1009 10 16 0.00 0.00
9:27 am 09:27 Mostly Cloudy 57 13.9 54 12.2 90 90 WNW 10 17 29.83 1010 10 16 0.00 0.03
9:52 am 09:52 Cloudy 56 13.3 54 12.2 93 93 NW 8 13 29.82 1010 10 16 0.00 0.03
10:42 am 10:42 Cloudy with Light Rain 55 13 54 12 94 94 WNW 7 11 29.85 1011 2 3 0.00 0.00
10:52 am 10:52 Cloudy with Light Rain 55 12.8 53 11.7 93 93 W 8 13 29.84 1011 4 6 0.03 0.76
11:52 am 11:52 Cloudy 56 13.3 54 12.2 93 93 WNW 6 9 29.84 1011 10 16 0.01 0.25
12:52 pm 12:52 Cloudy 58 14.4 54 12.2 87 87 W 12 19 29.83 1010 10 16 0.00 0.00
1:00 pm 13:00 Cloudy 59 15 54 12 82 82 WNW 6 9 29.80 1009 10 16 0.00 0.00
1:52 pm 13:52 Cloudy 61 16.1 54 12.2 78 78 W 9 15 29.83 1010 10 16 0.00 0.00
2:52 pm 14:52 Cloudy 59 15 53 11.7 81 81 NW 10 17 29.84 1010 10 16 0.00 0.00
3:11 pm 15:11 Cloudy 59 15 53 11.7 81 81 NW 13 20 29.83 1010 10 16 0.00 0.00
3:48 pm 15:48 Cloudy 57 14 52 11 82 82 WNW 9 15 29.88 1012 10 16 0.00 0.00
3:52 pm 15:52 Cloudy 57 13.9 51 10.6 81 81 WNW 12 19 29.86 1011 10 16 0.00 0.00
4:13 pm 16:13 Cloudy 56 13.3 51 10.6 84 84 WNW 10 17 29.88 1012 10 16 0.00 0.00
4:52 pm 16:52 Cloudy 56 13.3 51 10.6 84 84 WNW 10 17 29.87 1012 10 16 0.00 0.00
5:43 pm 17:43 Cloudy 54 12.2 50 10 87 87 WNW 8 13 29.88 1012 10 16 0.00 0.00
5:52 pm 17:52 Cloudy 54 12.2 50 10 87 87 NW 7 11 29.88 1012 10 16 0.00 0.00
6:52 pm 18:52 Cloudy 53 11.7 50 10 89 89 NW 6 9 29.90 1013 8 13 0.00 0.00
7:52 pm 19:52 Cloudy 52 11.1 49 9.4 89 89 NW 7 11 29.93 1013 10 16 0.00 0.00
8:52 pm 20:52 Cloudy 52 11.1 50 10 93 93 NNW 7 11 29.93 1014 7 11 0.00 0.00
9:52 pm 21:52 Cloudy 52 11.1 50 10 93 93 NNW 6 9 29.95 1014 10 16 0.00 0.00
10:52 pm 22:52 Cloudy 52 11.1 50 10 93 93 NNW 9 15 29.95 1014 9 14 0.00 0.00
11:52 pm 23:52 Cloudy 52 11.1 49 9.4 89 89 N 6 9 29.96 1014 10 16 0.00 0.00

Powered by AerisWeather